Location: Burgberg
(50.1428°N, 11.0671°E)
Time: 18:51:36
(UTC+00:00)

NOSS 3-2 (C) - Pass Details

Date: 26 January 2020
Orbit: 813 x 1399 km, 63.4° (Epoch: 10 February)

Event Time Altitude Azimuth Distance (km) Brightness Sun altitude
Exits shadow 03:10:12 71° 95° (E) 1,322 4.1 -36.3°
Drops below altitude 10° 03:17:43 10° 132° (SE) 3,390 6.6 -35.1°
Sets 03:20:43 0° 133° (SE) 4,404 7.3 -34.6°
